CZ-6A DEB, 54498

Orbit data source: Space-Track

CZ-6A DEB, 54498 is space debris in SSO originally from a launch on Fri, 11 Nov 2022 UTC launched from the Taiyaun Space Center, China (TSC). Debris objects in space refer to the collection of defunct objects orbiting the Earth. Examples of debris include non-operational satellites, rocket bodies, and fragments generated from explosions, collisions, or faulty payload assembly.

Loading next visibility...
Identifier
54498, 2022-151JA
Orbit
SSO
Country
Flag of CNCN / PRC
Related business
Manufacturer
SAST
Mission
Spacecraft
Bus & Motor
Unknown
Mass
Unknown
Launch date (UTC)
2022-11-11 (3 years ago)
Launch vehicle
Unknown
Launch site
Taiyaun Space Center, China (TSC)
Object type
Payload
Rocket body
Debris
Shape & HBR
Unknown shape, 0.1 m
Radar Cross Section
Small (<0.1 m²)

Expand to show TLE details & history
Last TLE update: 1 day ago

TLE from 1 day ago
0 CZ-6A DEB
1 54498U 22151JA  26129.59853641  .00004550  00000-0  12389-2 0  9991
2 54498  98.7610 182.5886 0026721  86.6098 273.8150 14.47725010182341
Epoch: 2026-05-09T14:21Z
TLE epoch observation values (Epoch: 2026-05-09T14:21:53.545Z)
Latitude
-0°
Longitude
99.70183°
Altitude
734.825 km
Speed
7.488 km/s
True Right ascension
12h 10m 21s
True Declination
0° 00' 00"
Sunlit
Object was in full shadow at epoch
Visualization orbit readout
Latitude
Unknown
Longitude
Unknown
Altitude
Unknown
Speed
Unknown
Apparent Right ascension
Unknown
Apparent Declination
Unknown
Sunlit
N/A
Visualization observer readout
Local Sidereal Time
01:07:24
Azimuth
Unknown
Elevation
Unknown
Doppler factor
Unknown
Orbital elements
Apogee altitude
749.207 km
Perigee altitude
711.218 km
Semi-major axis
7,108.35 km
Eccentricity
0.00267
Inclination
98.761°
RAAN
182.5886°
Arg. of periapsis
86.6098°
True anomaly
273.50941°
Mean anomaly
273.815°
Eccentric anomaly
273.66221°
Mean motion
3.62151 °/min
Orbital period
99.41 mins
BSTAR
0.0012389
Loading maneuver chart data...
Computing Atmospheric mass density...
Loading historical data...
Loading historical data...
Loading historical data...
Loading historical data...
Loading historical data...
Loading historical data...
Loading historical data...

Documentation

Showing up to 5 results
|